Precipitable_Water
1.95 2.01 2.09 2.15 2.16 2.17 2.17 2.15 2.13 2.15 2.15 2.15 2.14 2.14 2.13 2.10 2.05 2.04 1.98 1.94 1.93 1.96 2.04 2.06 2.01 2.05 2.03 1.99 1.98 1.92 1.85 1.81 1.80 1.75 1.66 1.58 1.48 1.38 1.34 1.33 1.31 1.33 1.39 1.48 1.56 1.57 1.56 1.53 1.50 1.49 1.49 1.50 1.48 1.37 1.25 1.24 1.25 1.28 1.27 1.23 1.33 1.39 1.44 1.47 1.47 1.47 1.46 1.45 1.46 1.49 1.55 1.60 1.61 1.62 1.66 1.69 1.69 1.68 1.63 1.56 1.52 1.54 1.55 1.58 1.62
1.89 2.06 2.10 2.11 2.12 2.15 2.16 2.18 2.14 2.17 2.16 2.15 2.12 2.10 2.08 2.08 2.03 1.98 1.95 1.96 1.94 1.90 1.97 1.97 2.00 1.99 1.95 1.95 1.98 1.94 1.87 1.85 1.76 1.66 1.59 1.51 1.42 1.35 1.30 1.28 1.30 1.34 1.41 1.51 1.57 1.57 1.55 1.55 1.54 1.54 1.58 1.59 1.55 1.46 1.52 1.61 1.66 1.70 1.67 1.63 1.55 1.50 1.52 1.52 1.49 1.46 1.44 1.45 1.46 1.48 1.48 1.54 1.59 1.60 1.63 1.66 1.70 1.71 1.66 1.59 1.51 1.48 1.52 1.56 1.58
2.01 2.06 2.10 2.08 2.12 2.13 2.11 2.14 2.14 2.16 2.15 2.14 2.11 2.10 2.05 2.02 1.95 1.94 1.98 1.99 1.97 1.93 1.94 1.99 1.99 1.91 1.92 1.89 1.89 1.91 1.78 1.75 1.73 1.65 1.57 1.53 1.48 1.43 1.39 1.35 1.30 1.28 1.33 1.43 1.50 1.52 1.53 1.52 1.52 1.53 1.53 1.52 1.50 1.52 1.61 1.72 1.78 1.83 1.86 1.86 1.87 1.81 1.69 1.56 1.50 1.49 1.47 1.47 1.47 1.48 1.51 1.54 1.58 1.60 1.62 1.65 1.67 1.67 1.62 1.57 1.52 1.49 1.49 1.53 1.55
1.95 2.06 2.10 2.12 2.14 2.14 2.12 2.13 2.14 2.15 2.12 2.11 2.09 2.04 1.98 1.95 1.93 1.91 1.87 1.91 1.95 1.90 1.91 1.93 1.93 1.94 1.92 1.89 1.87 1.78 1.83 1.89 1.79 1.64 1.62 1.62 1.55 1.47 1.42 1.38 1.33 1.32 1.33 1.36 1.40 1.43 1.44 1.43 1.44 1.47 1.50 1.51 1.50 1.52 1.62 1.74 1.81 1.83 1.86 1.86 1.83 1.82 1.79 1.75 1.64 1.46 1.45 1.44 1.43 1.43 1.45 1.45 1.50 1.55 1.58 1.61 1.61 1.59 1.58 1.53 1.55 1.55 1.56 1.56 1.58
1.98 2.07 2.12 2.15 2.13 2.14 2.12 2.10 2.11 2.10 2.07 2.05 2.02 1.98 1.95 1.93 1.92 1.87 1.80 1.85 1.99 1.92 1.89 1.88 1.91 1.93 1.90 1.86 1.84 1.83 1.82 1.81 1.77 1.72 1.72 1.66 1.56 1.50 1.42 1.34 1.29 1.29 1.31 1.33 1.34 1.37 1.42 1.48 1.52 1.55 1.55 1.55 1.56 1.59 1.70 1.79 1.83 1.81 1.80 1.79 1.75 1.74 1.74 1.74 1.71 1.61 1.41 1.38 1.37 1.35 1.35 1.37 1.39 1.44 1.48 1.51 1.52 1.52 1.49 1.45 1.51 1.56 1.58 1.60 1.62
1.97 2.05 2.08 2.11 2.09 2.13 2.15 2.14 2.13 2.09 2.05 2.00 1.98 1.95 1.93 1.92 1.93 1.87 1.76 1.79 1.95 1.94 1.89 1.87 1.90 1.90 1.87 1.87 1.81 1.79 1.83 1.83 1.86 1.80 1.77 1.67 1.58 1.46 1.37 1.30 1.28 1.28 1.28 1.29 1.31 1.35 1.41 1.46 1.49 1.49 1.52 1.55 1.57 1.62 1.70 1.78 1.78 1.78 1.74 1.74 1.75 1.77 1.72 1.69 1.68 1.64 1.50 1.42 1.36 1.32 1.32 1.35 1.38 1.40 1.41 1.43 1.43 1.42 1.41 1.44 1.52 1.56 1.57 1.59 1.63
1.96 2.03 2.06 2.06 2.10 2.14 2.16 2.14 2.11 2.08 2.02 1.99 1.97 1.94 1.93 1.94 1.97 1.99 1.84 1.74 1.87 1.92 1.88 1.87 1.87 1.87 1.87 1.83 1.74 1.70 1.80 1.81 1.81 1.81 1.77 1.61 1.48 1.41 1.37 1.34 1.34 1.35 1.36 1.35 1.33 1.32 1.34 1.36 1.38 1.38 1.40 1.44 1.49 1.55 1.62 1.71 1.75 1.75 1.76 1.72 1.76 1.74 1.71 1.68 1.65 1.61 1.49 1.33 1.28 1.29 1.31 1.36 1.43 1.47 1.51 1.53 1.54 1.54 1.52 1.51 1.53 1.53 1.53 1.55 1.58
1.96 2.00 2.03 2.05 2.08 2.11 2.12 2.10 2.09 2.03 2.00 1.96 1.94 1.94 1.94 1.96 2.01 2.02 1.90 1.74 1.79 1.91 1.85 1.87 1.87 1.88 1.90 1.85 1.72 1.69 1.80 1.82 1.82 1.84 1.76 1.58 1.51 1.49 1.48 1.46 1.44 1.41 1.40 1.37 1.33 1.31 1.29 1.30 1.30 1.30 1.30 1.33 1.39 1.46 1.56 1.64 1.73 1.73 1.72 1.72 1.74 1.70 1.64 1.59 1.57 1.56 1.50 1.39 1.36 1.37 1.33 1.34 1.40 1.43 1.47 1.50 1.54 1.57 1.56 1.57 1.56 1.53 1.52 1.54 1.56
1.87 1.96 2.02 2.05 2.05 2.07 2.07 2.06 2.04 2.04 1.99 1.93 1.94 1.93 1.95 1.96 1.98 1.96 1.89 1.76 1.77 1.86 1.82 1.83 1.86 1.88 1.93 1.89 1.78 1.77 1.84 1.83 1.84 1.87 1.76 1.65 1.59 1.56 1.55 1.55 1.53 1.47 1.42 1.36 1.34 1.33 1.33 1.32 1.31 1.30 1.29 1.30 1.35 1.43 1.50 1.54 1.54 1.55 1.57 1.67 1.71 1.66 1.58 1.53 1.53 1.52 1.50 1.44 1.42 1.42 1.38 1.34 1.36 1.41 1.42 1.39 1.43 1.49 1.55 1.58 1.62 1.59 1.56 1.53 1.57
1.85 1.92 1.97 1.99 2.01 2.02 2.00 1.99 1.99 1.98 1.97 1.93 1.91 1.91 1.92 1.89 1.87 1.84 1.82 1.74 1.77 1.84 1.86 1.83 1.86 1.89 1.94 1.94 1.89 1.86 1.88 1.88 1.85 1.82 1.75 1.66 1.61 1.62 1.63 1.64 1.59 1.49 1.39 1.37 1.39 1.42 1.41 1.40 1.39 1.34 1.31 1.31 1.37 1.43 1.48 1.50 1.55 1.59 1.64 1.77 1.75 1.66 1.54 1.51 1.52 1.51 1.49 1.49 1.47 1.45 1.43 1.40 1.43 1.48 1.49 1.45 1.36 1.32 1.37 1.43 1.43 1.47 1.46 1.44 1.39
1.80 1.86 1.89 1.92 1.95 1.96 1.96 1.96 1.97 1.97 1.95 1.91 1.91 1.91 1.87 1.81 1.78 1.75 1.72 1.70 1.78 1.87 1.91 1.88 1.90 1.90 1.91 1.92 1.93 1.90 1.89 1.90 1.89 1.85 1.78 1.71 1.65 1.64 1.66 1.66 1.60 1.51 1.43 1.44 1.49 1.49 1.47 1.46 1.46 1.42 1.36 1.34 1.36 1.43 1.51 1.55 1.58 1.68 1.80 1.73 1.64 1.54 1.53 1.55 1.52 1.50 1.52 1.52 1.49 1.47 1.48 1.43 1.42 1.50 1.51 1.48 1.47 1.47 1.48 1.48 1.50 1.52 1.52 1.42 1.38
1.77 1.83 1.85 1.86 1.89 1.92 1.94 1.95 1.96 1.96 1.93 1.89 1.90 1.91 1.86 1.81 1.80 1.76 1.70 1.71 1.78 1.86 1.92 1.92 1.91 1.91 1.91 1.93 1.94 1.90 1.89 1.90 1.89 1.86 1.76 1.69 1.66 1.65 1.68 1.63 1.55 1.47 1.46 1.50 1.51 1.49 1.47 1.46 1.46 1.44 1.38 1.38 1.41 1.47 1.52 1.52 1.51 1.64 1.77 1.69 1.60 1.55 1.55 1.54 1.49 1.49 1.51 1.51 1.50 1.48 1.49 1.44 1.42 1.51 1.51 1.49 1.46 1.44 1.45 1.47 1.50 1.53 1.60 1.64 1.48
1.72 1.78 1.81 1.84 1.86 1.89 1.92 1.94 1.96 1.98 1.92 1.88 1.89 1.90 1.89 1.84 1.84 1.85 1.80 1.79 1.83 1.90 1.95 1.94 1.89 1.89 1.92 1.93 1.94 1.93 1.90 1.93 1.86 1.80 1.75 1.68 1.65 1.65 1.61 1.52 1.49 1.48 1.49 1.52 1.51 1.48 1.46 1.46 1.45 1.42 1.41 1.44 1.48 1.53 1.56 1.52 1.52 1.61 1.72 1.71 1.65 1.57 1.48 1.54 1.49 1.48 1.50 1.51 1.49 1.48 1.46 1.42 1.42 1.48 1.52 1.50 1.48 1.47 1.45 1.41 1.42 1.46 1.49 1.57 1.65
1.63 1.71 1.76 1.79 1.82 1.87 1.87 1.90 1.93 1.95 1.91 1.87 1.88 1.91 1.94 1.88 1.83 1.85 1.86 1.92 1.93 1.95 1.97 1.95 1.89 1.88 1.91 1.90 1.92 1.90 1.88 1.87 1.85 1.79 1.74 1.66 1.63 1.61 1.52 1.48 1.47 1.50 1.51 1.51 1.49 1.46 1.45 1.45 1.44 1.43 1.46 1.51 1.52 1.54 1.53 1.50 1.50 1.57 1.67 1.71 1.71 1.56 1.51 1.54 1.51 1.50 1.51 1.50 1.48 1.45 1.45 1.44 1.44 1.46 1.48 1.48 1.47 1.43 1.39 1.37 1.36 1.41 1.45 1.48 1.51
1.57 1.65 1.70 1.74 1.77 1.81 1.83 1.85 1.87 1.89 1.89 1.87 1.87 1.89 1.93 1.92 1.85 1.83 1.84 1.87 1.95 1.96 1.99 1.96 1.89 1.87 1.89 1.89 1.90 1.86 1.83 1.82 1.82 1.75 1.69 1.63 1.59 1.51 1.46 1.45 1.46 1.46 1.48 1.48 1.46 1.44 1.47 1.47 1.45 1.44 1.48 1.52 1.55 1.54 1.54 1.56 1.58 1.59 1.58 1.64 1.63 1.55 1.51 1.50 1.51 1.51 1.50 1.49 1.45 1.44 1.44 1.47 1.46 1.46 1.47 1.45 1.49 1.50 1.48 1.49 1.50 1.51 1.63 1.65 1.65
1.62 1.61 1.67 1.68 1.72 1.76 1.79 1.81 1.82 1.84 1.86 1.87 1.85 1.86 1.88 1.90 1.89 1.86 1.85 1.85 1.84 1.91 1.97 2.00 1.91 1.86 1.88 1.90 1.89 1.86 1.83 1.83 1.78 1.69 1.60 1.56 1.49 1.44 1.45 1.44 1.42 1.43 1.45 1.48 1.49 1.49 1.51 1.51 1.49 1.49 1.50 1.53 1.55 1.56 1.57 1.59 1.63 1.64 1.66 1.61 1.60 1.54 1.50 1.49 1.49 1.49 1.48 1.45 1.41 1.41 1.45 1.48 1.49 1.47 1.53 1.53 1.53 1.52 1.51 1.51 1.52 1.56 1.65 1.74 1.76
1.62 1.62 1.63 1.65 1.70 1.71 1.73 1.77 1.79 1.79 1.80 1.83 1.84 1.81 1.82 1.84 1.86 1.87 1.86 1.85 1.82 1.84 1.92 1.95 1.93 1.90 1.92 1.91 1.89 1.86 1.83 1.82 1.71 1.59 1.54 1.47 1.42 1.43 1.45 1.43 1.41 1.43 1.45 1.49 1.51 1.51 1.53 1.52 1.51 1.53 1.54 1.54 1.57 1.58 1.59 1.60 1.64 1.68 1.66 1.62 1.63 1.56 1.51 1.48 1.47 1.46 1.44 1.41 1.38 1.41 1.46 1.52 1.54 1.55 1.57 1.57 1.54 1.54 1.55 1.52 1.49 1.49 1.48 1.58 1.69
1.63 1.63 1.61 1.65 1.67 1.69 1.72 1.77 1.78 1.76 1.76 1.81 1.85 1.78 1.73 1.77 1.82 1.84 1.85 1.86 1.83 1.79 1.85 1.91 1.94 1.95 1.96 1.92 1.87 1.83 1.80 1.73 1.61 1.55 1.52 1.45 1.41 1.43 1.43 1.42 1.43 1.43 1.45 1.51 1.53 1.54 1.52 1.52 1.52 1.53 1.53 1.54 1.57 1.58 1.57 1.58 1.59 1.62 1.69 1.63 1.64 1.56 1.50 1.47 1.45 1.43 1.41 1.41 1.42 1.45 1.48 1.53 1.56 1.56 1.57 1.55 1.55 1.58 1.57 1.58 1.54 1.49 1.45 1.41 1.44
1.67 1.67 1.69 1.68 1.66 1.70 1.73 1.77 1.79 1.76 1.77 1.77 1.79 1.75 1.69 1.75 1.82 1.84 1.87 1.87 1.87 1.81 1.80 1.88 1.92 1.95 1.95 1.93 1.89 1.84 1.76 1.66 1.58 1.53 1.49 1.43 1.38 1.40 1.42 1.43 1.44 1.47 1.48 1.50 1.52 1.51 1.49 1.49 1.52 1.52 1.52 1.53 1.54 1.54 1.56 1.61 1.64 1.66 1.62 1.60 1.61 1.51 1.46 1.43 1.41 1.41 1.43 1.45 1.47 1.48 1.49 1.55 1.57 1.55 1.55 1.55 1.55 1.54 1.55 1.52 1.47 1.43 1.39 1.36 1.36
1.68 1.69 1.71 1.74 1.75 1.74 1.76 1.78 1.77 1.77 1.81 1.83 1.78 1.75 1.72 1.74 1.82 1.86 1.88 1.89 1.86 1.84 1.80 1.82 1.88 1.90 1.91 1.94 1.91 1.83 1.72 1.64 1.57 1.52 1.45 1.39 1.35 1.36 1.39 1.45 1.48 1.48 1.49 1.49 1.48 1.48 1.47 1.48 1.50 1.51 1.49 1.51 1.54 1.55 1.57 1.59 1.62 1.64 1.62 1.56 1.53 1.46 1.40 1.41 1.40 1.42 1.47 1.47 1.51 1.53 1.55 1.58 1.57 1.55 1.53 1.55 1.55 1.53 1.48 1.46 1.43 1.42 1.34 1.30 1.24
1.67 1.71 1.75 1.80 1.83 1.82 1.82 1.80 1.81 1.81 1.84 1.87 1.87 1.82 1.82 1.83 1.84 1.86 1.90 1.89 1.86 1.85 1.83 1.81 1.84 1.90 1.94 1.96 1.90 1.80 1.71 1.64 1.59 1.51 1.44 1.38 1.33 1.36 1.42 1.49 1.52 1.52 1.50 1.48 1.48 1.46 1.45 1.46 1.48 1.50 1.49 1.51 1.53 1.57 1.55 1.52 1.53 1.59 1.60 1.50 1.43 1.37 1.38 1.39 1.43 1.48 1.51 1.53 1.55 1.56 1.58 1.59 1.57 1.52 1.50 1.53 1.52 1.47 1.44 1.46 1.46 1.36 1.30 1.20 1.15
1.58 1.66 1.79 1.86 1.87 1.86 1.81 1.79 1.80 1.82 1.85 1.87 1.89 1.90 1.90 1.93 1.90 1.91 1.91 1.89 1.84 1.87 1.85 1.83 1.86 1.90 1.95 1.95 1.88 1.78 1.68 1.63 1.55 1.48 1.42 1.34 1.33 1.39 1.45 1.49 1.53 1.51 1.49 1.48 1.47 1.46 1.47 1.47 1.49 1.49 1.49 1.49 1.53 1.52 1.52 1.50 1.56 1.59 1.50 1.38 1.33 1.35 1.39 1.42 1.48 1.52 1.55 1.57 1.58 1.58 1.60 1.60 1.56 1.52 1.48 1.48 1.46 1.43 1.44 1.43 1.45 1.39 1.30 1.18 1.08
1.48 1.60 1.67 1.76 1.80 1.82 1.80 1.76 1.79 1.84 1.86 1.88 1.91 1.93 1.95 1.95 1.92 1.93 1.92 1.86 1.84 1.87 1.87 1.85 1.88 1.88 1.91 1.90 1.85 1.75 1.68 1.61 1.51 1.45 1.39 1.33 1.32 1.36 1.41 1.47 1.54 1.53 1.53 1.55 1.56 1.55 1.52 1.50 1.49 1.48 1.47 1.48 1.47 1.46 1.46 1.45 1.51 1.50 1.41 1.35 1.36 1.40 1.44 1.48 1.55 1.60 1.62 1.65 1.65 1.67 1.69 1.69 1.67 1.66 1.62 1.59 1.55 1.50 1.50 1.50 1.49 1.46 1.36 1.22 1.09
1.46 1.53 1.56 1.68 1.71 1.70 1.73 1.78 1.80 1.84 1.86 1.88 1.91 1.93 1.96 1.98 1.95 1.92 1.91 1.86 1.81 1.83 1.82 1.82 1.85 1.87 1.87 1.88 1.84 1.74 1.67 1.59 1.51 1.49 1.42 1.33 1.32 1.40 1.47 1.59 1.63 1.55 1.52 1.54 1.55 1.55 1.53 1.50 1.48 1.48 1.45 1.44 1.44 1.45 1.43 1.41 1.38 1.37 1.36 1.39 1.43 1.48 1.51 1.54 1.59 1.63 1.68 1.71 1.72 1.75 1.77 1.80 1.80 1.78 1.73 1.71 1.68 1.65 1.63 1.61 1.58 1.53 1.42 1.26 1.11
1.52 1.57 1.57 1.57 1.63 1.66 1.70 1.77 1.82 1.85 1.84 1.85 1.86 1.88 1.95 1.99 1.99 1.97 1.93 1.88 1.80 1.79 1.78 1.79 1.81 1.84 1.82 1.90 1.84 1.73 1.66 1.58 1.49 1.43 1.34 1.33 1.35 1.41 1.48 1.53 1.54 1.50 1.52 1.51 1.54 1.53 1.52 1.48 1.47 1.45 1.41 1.40 1.42 1.43 1.41 1.36 1.37 1.39 1.41 1.44 1.48 1.53 1.55 1.56 1.59 1.64 1.69 1.72 1.74 1.77 1.80 1.83 1.84 1.82 1.79 1.79 1.77 1.76 1.74 1.72 1.71 1.66 1.55 1.32 1.13
1.61 1.52 1.53 1.59 1.62 1.65 1.68 1.75 1.82 1.83 1.83 1.81 1.81 1.86 1.93 1.94 1.97 1.99 1.99 1.94 1.86 1.81 1.80 1.78 1.80 1.82 1.79 1.89 1.82 1.69 1.65 1.55 1.44 1.33 1.27 1.34 1.39 1.44 1.51 1.60 1.56 1.49 1.54 1.52 1.53 1.51 1.48 1.48 1.47 1.42 1.40 1.44 1.44 1.46 1.44 1.40 1.40 1.44 1.47 1.48 1.50 1.51 1.54 1.55 1.58 1.63 1.69 1.73 1.76 1.79 1.80 1.82 1.84 1.83 1.82 1.80 1.80 1.79 1.79 1.76 1.76 1.71 1.66 1.38 1.19
1.55 1.54 1.60 1.64 1.67 1.66 1.68 1.73 1.70 1.72 1.76 1.83 1.86 1.88 1.88 1.92 1.95 1.99 1.98 1.95 1.93 1.86 1.83 1.81 1.80 1.82 1.80 1.87 1.76 1.67 1.66 1.51 1.35 1.26 1.23 1.38 1.43 1.51 1.60 1.68 1.60 1.58 1.59 1.53 1.47 1.46 1.46 1.44 1.41 1.37 1.38 1.41 1.42 1.43 1.42 1.43 1.45 1.43 1.45 1.47 1.48 1.49 1.51 1.53 1.58 1.62 1.67 1.72 1.76 1.79 1.79 1.83 1.85 1.84 1.84 1.82 1.80 1.81 1.74 1.78 1.72 1.78 1.68 1.51 1.24
1.54 1.55 1.60 1.65 1.66 1.66 1.72 1.73 1.71 1.71 1.73 1.82 1.85 1.87 1.92 1.93 1.92 1.95 1.98 2.00 1.96 1.89 1.86 1.84 1.81 1.84 1.84 1.86 1.81 1.75 1.66 1.42 1.28 1.23 1.29 1.44 1.47 1.60 1.75 1.70 1.63 1.61 1.59 1.55 1.47 1.44 1.42 1.40 1.36 1.33 1.33 1.36 1.36 1.39 1.41 1.44 1.45 1.48 1.47 1.47 1.48 1.47 1.50 1.55 1.58 1.62 1.66 1.71 1.74 1.79 1.79 1.84 1.86 1.85 1.83 1.81 1.82 1.82 1.80 1.74 1.74 1.71 1.68 1.59 1.34
1.51 1.56 1.60 1.62 1.66 1.71 1.75 1.75 1.77 1.75 1.77 1.83 1.82 1.89 1.95 1.95 1.94 1.92 1.93 2.00 1.97 1.93 1.93 1.90 1.82 1.84 1.88 1.86 1.82 1.73 1.63 1.35 1.25 1.35 1.43 1.48 1.59 1.70 1.70 1.63 1.62 1.57 1.54 1.48 1.47 1.42 1.41 1.39 1.33 1.30 1.30 1.33 1.37 1.38 1.39 1.39 1.43 1.48 1.48 1.47 1.48 1.48 1.51 1.54 1.58 1.62 1.64 1.67 1.71 1.76 1.80 1.84 1.86 1.86 1.82 1.81 1.81 1.83 1.86 1.79 1.74 1.72 1.71 1.69 1.48
1.56 1.59 1.62 1.62 1.68 1.75 1.76 1.77 1.79 1.79 1.81 1.85 1.86 1.88 1.93 1.93 1.93 1.92 1.96 2.00 1.98 1.97 1.97 1.90 1.85 1.83 1.85 1.87 1.84 1.78 1.58 1.31 1.38 1.48 1.45 1.51 1.64 1.67 1.61 1.59 1.56 1.55 1.52 1.44 1.45 1.43 1.40 1.40 1.36 1.32 1.30 1.32 1.35 1.39 1.40 1.38 1.41 1.44 1.47 1.48 1.50 1.50 1.51 1.53 1.56 1.59 1.62 1.63 1.69 1.77 1.81 1.85 1.86 1.86 1.83 1.81 1.80 1.82 1.85 1.80 1.74 1.72 1.69 1.69 1.57
1.60 1.58 1.61 1.62 1.67 1.73 1.78 1.81 1.81 1.83 1.85 1.82 1.87 1.89 1.95 1.95 1.96 1.98 2.01 2.01 2.01 2.00 1.96 1.92 1.84 1.84 1.86 1.87 1.83 1.77 1.55 1.43 1.53 1.54 1.49 1.53 1.59 1.53 1.49 1.53 1.53 1.54 1.54 1.48 1.50 1.47 1.47 1.45 1.42 1.38 1.33 1.32 1.34 1.39 1.41 1.40 1.41 1.42 1.47 1.48 1.49 1.52 1.50 1.53 1.55 1.59 1.60 1.62 1.68 1.76 1.80 1.86 1.86 1.85 1.84 1.82 1.78 1.78 1.81 1.81 1.76 1.72 1.67 1.68 1.63
1.54 1.51 1.56 1.63 1.66 1.73 1.79 1.84 1.85 1.87 1.86 1.85 1.90 1.91 1.95 1.96 1.99 2.00 2.01 2.04 2.03 1.98 1.95 1.91 1.85 1.84 1.88 1.87 1.82 1.71 1.59 1.56 1.62 1.58 1.54 1.57 1.49 1.44 1.45 1.48 1.50 1.55 1.56 1.52 1.51 1.53 1.51 1.52 1.50 1.49 1.47 1.43 1.39 1.41 1.44 1.40 1.40 1.42 1.46 1.46 1.50 1.50 1.50 1.52 1.52 1.56 1.59 1.63 1.69 1.73 1.77 1.80 1.84 1.84 1.83 1.84 1.79 1.77 1.76 1.77 1.76 1.77 1.70 1.67 1.66
1.54 1.51 1.54 1.61 1.65 1.73 1.79 1.86 1.91 1.92 1.89 1.89 1.92 1.95 1.98 1.98 1.98 1.97 2.01 2.05 2.03 1.98 1.94 1.90 1.87 1.87 1.88 1.87 1.80 1.72 1.64 1.59 1.62 1.60 1.63 1.53 1.42 1.40 1.42 1.48 1.52 1.56 1.55 1.55 1.53 1.52 1.52 1.52 1.51 1.52 1.49 1.49 1.46 1.45 1.49 1.47 1.41 1.41 1.42 1.43 1.48 1.48 1.49 1.50 1.51 1.54 1.59 1.63 1.67 1.71 1.74 1.76 1.78 1.79 1.83 1.84 1.81 1.79 1.77 1.77 1.75 1.76 1.75 1.72 1.66
1.53 1.53 1.55 1.58 1.69 1.78 1.85 1.90 1.94 1.92 1.92 1.95 1.97 1.96 1.97 1.98 2.02 2.00 2.04 2.05 2.01 1.97 1.95 1.95 1.91 1.89 1.88 1.86 1.78 1.74 1.62 1.62 1.62 1.61 1.58 1.46 1.40 1.39 1.41 1.45 1.51 1.55 1.56 1.54 1.49 1.51 1.49 1.49 1.48 1.48 1.46 1.46 1.43 1.43 1.40 1.38 1.39 1.36 1.38 1.40 1.44 1.46 1.47 1.47 1.47 1.51 1.57 1.62 1.66 1.69 1.71 1.74 1.74 1.73 1.77 1.79 1.80 1.78 1.78 1.77 1.77 1.74 1.73 1.74 1.70
1.54 1.52 1.53 1.59 1.67 1.76 1.87 1.89 1.95 1.92 1.95 1.93 1.94 1.95 1.97 1.96 1.99 1.98 2.01 2.03 2.00 1.97 1.97 1.97 1.92 1.90 1.88 1.85 1.78 1.66 1.57 1.61 1.63 1.57 1.49 1.46 1.41 1.39 1.43 1.47 1.53 1.53 1.51 1.53 1.52 1.50 1.49 1.46 1.48 1.41 1.41 1.45 1.43 1.38 1.33 1.30 1.32 1.29 1.33 1.38 1.39 1.44 1.46 1.44 1.46 1.49 1.52 1.57 1.64 1.67 1.69 1.70 1.72 1.70 1.72 1.75 1.76 1.76 1.76 1.74 1.77 1.77 1.72 1.75 1.71
1.51 1.53 1.58 1.65 1.66 1.77 1.87 1.89 1.94 1.93 1.94 1.94 1.93 1.97 1.97 1.96 1.99 1.97 1.99 2.01 2.00 1.97 1.96 1.96 1.92 1.91 1.86 1.82 1.76 1.57 1.49 1.57 1.57 1.55 1.49 1.48 1.44 1.42 1.45 1.49 1.50 1.48 1.50 1.53 1.52 1.45 1.46 1.45 1.48 1.45 1.35 1.37 1.38 1.30 1.32 1.26 1.26 1.27 1.33 1.36 1.40 1.42 1.44 1.44 1.43 1.46 1.51 1.55 1.61 1.64 1.66 1.67 1.67 1.68 1.70 1.73 1.76 1.75 1.75 1.74 1.76 1.78 1.73 1.72 1.72
1.54 1.53 1.55 1.61 1.65 1.75 1.86 1.89 1.90 1.92 1.93 1.94 1.94 1.98 1.98 1.95 1.96 1.95 1.97 1.97 1.96 1.95 1.95 1.94 1.88 1.85 1.82 1.77 1.71 1.52 1.43 1.49 1.53 1.58 1.55 1.50 1.50 1.48 1.49 1.48 1.49 1.47 1.49 1.52 1.49 1.50 1.46 1.42 1.43 1.46 1.43 1.40 1.37 1.30 1.28 1.28 1.27 1.31 1.33 1.36 1.43 1.45 1.43 1.43 1.44 1.47 1.53 1.52 1.56 1.61 1.63 1.65 1.65 1.68 1.68 1.69 1.73 1.73 1.73 1.73 1.74 1.78 1.76 1.72 1.72
1.56 1.55 1.58 1.59 1.62 1.74 1.84 1.87 1.91 1.94 1.94 1.92 1.93 1.96 1.95 1.95 1.94 1.94 1.95 1.91 1.92 1.94 1.92 1.87 1.80 1.78 1.76 1.71 1.65 1.48 1.45 1.47 1.56 1.62 1.58 1.58 1.60 1.56 1.54 1.51 1.49 1.48 1.48 1.49 1.48 1.52 1.49 1.45 1.39 1.45 1.46 1.43 1.39 1.35 1.30 1.29 1.31 1.32 1.35 1.40 1.46 1.48 1.47 1.49 1.50 1.57 1.56 1.56 1.57 1.61 1.62 1.65 1.64 1.65 1.65 1.64 1.68 1.68 1.71 1.73 1.73 1.75 1.78 1.75 1.72
1.53 1.55 1.60 1.62 1.67 1.74 1.82 1.83 1.86 1.89 1.90 1.91 1.93 1.95 1.93 1.94 1.93 1.90 1.89 1.87 1.88 1.90 1.87 1.78 1.75 1.73 1.72 1.69 1.57 1.45 1.45 1.50 1.56 1.61 1.60 1.58 1.58 1.57 1.52 1.52 1.51 1.49 1.47 1.45 1.46 1.45 1.44 1.44 1.40 1.37 1.45 1.44 1.40 1.43 1.40 1.32 1.32 1.36 1.39 1.44 1.48 1.47 1.52 1.56 1.58 1.60 1.60 1.60 1.60 1.64 1.64 1.63 1.63 1.62 1.63 1.66 1.67 1.69 1.71 1.73 1.71 1.70 1.74 1.74 1.73
1.50 1.54 1.58 1.58 1.61 1.69 1.76 1.78 1.83 1.87 1.87 1.87 1.90 1.87 1.86 1.82 1.75 1.80 1.80 1.80 1.81 1.79 1.77 1.71 1.70 1.69 1.70 1.63 1.52 1.43 1.40 1.46 1.52 1.58 1.56 1.54 1.54 1.52 1.52 1.55 1.53 1.49 1.44 1.43 1.43 1.41 1.39 1.38 1.39 1.38 1.40 1.41 1.45 1.47 1.46 1.41 1.39 1.36 1.36 1.41 1.45 1.48 1.49 1.55 1.58 1.61 1.62 1.60 1.61 1.66 1.60 1.62 1.63 1.62 1.63 1.65 1.66 1.68 1.71 1.70 1.70 1.65 1.68 1.72 1.75
1.49 1.52 1.54 1.51 1.55 1.61 1.67 1.66 1.77 1.84 1.79 1.76 1.78 1.76 1.71 1.71 1.72 1.68 1.65 1.72 1.72 1.70 1.66 1.64 1.64 1.67 1.65 1.57 1.49 1.38 1.35 1.41 1.45 1.50 1.49 1.54 1.55 1.53 1.53 1.53 1.55 1.50 1.44 1.43 1.48 1.49 1.48 1.44 1.44 1.46 1.38 1.32 1.36 1.45 1.46 1.43 1.30 1.26 1.34 1.33 1.37 1.47 1.48 1.52 1.54 1.57 1.60 1.62 1.64 1.61 1.60 1.57 1.57 1.58 1.60 1.64 1.64 1.64 1.67 1.68 1.65 1.63 1.64 1.68 1.72
1.43 1.50 1.49 1.47 1.51 1.59 1.62 1.66 1.73 1.76 1.75 1.74 1.73 1.72 1.71 1.66 1.63 1.63 1.65 1.66 1.64 1.60 1.55 1.57 1.60 1.65 1.62 1.57 1.47 1.35 1.35 1.39 1.42 1.45 1.47 1.51 1.52 1.54 1.52 1.48 1.49 1.47 1.49 1.49 1.46 1.48 1.46 1.41 1.40 1.35 1.42 1.33 1.30 1.39 1.41 1.31 1.18 1.15 1.16 1.21 1.28 1.37 1.40 1.42 1.44 1.49 1.54 1.59 1.61 1.58 1.55 1.52 1.50 1.54 1.58 1.59 1.60 1.64 1.64 1.65 1.64 1.59 1.59 1.66 1.68
1.44 1.47 1.51 1.48 1.48 1.53 1.60 1.63 1.67 1.68 1.70 1.72 1.70 1.64 1.69 1.72 1.70 1.67 1.63 1.60 1.71 1.68 1.60 1.57 1.64 1.59 1.56 1.53 1.44 1.36 1.36 1.37 1.43 1.47 1.49 1.55 1.59 1.57 1.50 1.49 1.48 1.48 1.42 1.40 1.38 1.36 1.40 1.39 1.40 1.33 1.31 1.36 1.34 1.42 1.35 1.32 1.17 1.29 1.30 1.16 1.17 1.12 1.23 1.32 1.42 1.45 1.52 1.55 1.57 1.54 1.53 1.52 1.52 1.57 1.59 1.55 1.55 1.57 1.62 1.63 1.62 1.60 1.56 1.61 1.66
1.45 1.46 1.46 1.41 1.43 1.48 1.55 1.59 1.62 1.65 1.67 1.69 1.68 1.70 1.71 1.73 1.75 1.72 1.69 1.64 1.56 1.62 1.59 1.60 1.55 1.51 1.46 1.50 1.42 1.35 1.36 1.38 1.47 1.55 1.60 1.63 1.64 1.61 1.58 1.50 1.48 1.49 1.43 1.36 1.36 1.34 1.41 1.45 1.44 1.42 1.35 1.18 1.21 1.25 1.38 1.37 1.37 1.29 1.06 1.10 1.15 1.14 1.03 1.18 1.26 1.43 1.54 1.53 1.52 1.51 1.53 1.52 1.55 1.58 1.56 1.50 1.53 1.57 1.60 1.61 1.55 1.58 1.56 1.58 1.62
1.42 1.43 1.42 1.36 1.37 1.41 1.50 1.56 1.59 1.59 1.63 1.65 1.65 1.67 1.69 1.69 1.72 1.70 1.70 1.63 1.60 1.54 1.48 1.44 1.43 1.40 1.40 1.35 1.29 1.31 1.35 1.42 1.52 1.60 1.65 1.62 1.62 1.63 1.57 1.52 1.47 1.48 1.47 1.39 1.35 1.38 1.42 1.47 1.47 1.41 1.37 1.25 1.21 1.26 1.36 1.47 1.44 1.45 1.27 1.14 1.15 1.10 1.12 1.24 1.31 1.33 1.47 1.42 1.46 1.51 1.55 1.55 1.53 1.55 1.57 1.54 1.55 1.57 1.58 1.57 1.56 1.60 1.58 1.59 1.61
1.42 1.44 1.43 1.37 1.34 1.37 1.48 1.53 1.57 1.57 1.57 1.60 1.62 1.61 1.59 1.58 1.56 1.48 1.40 1.39 1.33 1.33 1.26 1.24 1.26 1.27 1.26 1.27 1.24 1.26 1.33 1.41 1.49 1.56 1.59 1.60 1.58 1.61 1.57 1.49 1.48 1.50 1.51 1.46 1.44 1.43 1.39 1.39 1.43 1.43 1.41 1.45 1.33 1.33 1.34 1.54 1.55 1.53 1.50 1.46 1.39 1.22 1.19 1.32 1.28 1.10 1.36 1.47 1.46 1.49 1.52 1.51 1.54 1.57 1.61 1.58 1.53 1.53 1.59 1.58 1.60 1.59 1.59 1.60 1.62
1.44 1.48 1.43 1.37 1.36 1.34 1.42 1.48 1.52 1.51 1.53 1.56 1.59 1.57 1.54 1.56 1.52 1.46 1.41 1.33 1.26 1.28 1.33 1.34 1.30 1.29 1.28 1.20 1.18 1.25 1.30 1.33 1.40 1.46 1.48 1.55 1.58 1.58 1.58 1.56 1.54 1.51 1.51 1.47 1.43 1.41 1.41 1.40 1.45 1.43 1.45 1.48 1.43 1.29 1.32 1.42 1.55 1.58 1.56 1.52 1.50 1.52 1.46 1.30 1.17 1.24 1.12 1.32 1.44 1.40 1.49 1.59 1.60 1.59 1.60 1.59 1.56 1.55 1.59 1.61 1.57 1.56 1.56 1.59 1.60
1.48 1.48 1.41 1.36 1.34 1.30 1.35 1.40 1.49 1.49 1.48 1.54 1.55 1.56 1.50 1.52 1.50 1.47 1.44 1.37 1.32 1.28 1.31 1.31 1.32 1.28 1.22 1.18 1.21 1.22 1.26 1.29 1.33 1.38 1.41 1.48 1.56 1.57 1.61 1.62 1.59 1.59 1.55 1.47 1.44 1.46 1.48 1.51 1.51 1.52 1.52 1.50 1.46 1.38 1.39 1.46 1.35 1.41 1.52 1.44 1.43 1.46 1.47 1.47 1.48 1.34 1.27 1.19 1.27 1.44 1.52 1.52 1.56 1.59 1.63 1.61 1.60 1.57 1.57 1.59 1.57 1.54 1.51 1.53 1.58
1.51 1.43 1.40 1.36 1.35 1.32 1.31 1.36 1.40 1.48 1.44 1.50 1.54 1.55 1.54 1.51 1.49 1.46 1.41 1.42 1.41 1.38 1.39 1.37 1.29 1.28 1.20 1.21 1.20 1.22 1.23 1.28 1.35 1.37 1.41 1.47 1.54 1.55 1.58 1.58 1.58 1.61 1.60 1.53 1.51 1.53 1.53 1.52 1.50 1.49 1.51 1.57 1.61 1.60 1.51 1.43 1.42 1.40 1.40 1.40 1.41 1.38 1.41 1.49 1.51 1.50 1.36 1.25 1.26 1.32 1.34 1.49 1.54 1.60 1.65 1.70 1.69 1.67 1.62 1.61 1.61 1.58 1.51 1.48 1.53
1.56 1.52 1.47 1.43 1.40 1.33 1.26 1.28 1.29 1.40 1.45 1.45 1.51 1.53 1.53 1.52 1.46 1.44 1.41 1.41 1.44 1.42 1.39 1.30 1.24 1.24 1.19 1.21 1.22 1.23 1.24 1.29 1.36 1.42 1.44 1.51 1.55 1.58 1.57 1.54 1.53 1.58 1.62 1.60 1.58 1.55 1.55 1.55 1.57 1.59 1.64 1.63 1.68 1.63 1.54 1.53 1.51 1.51 1.49 1.45 1.36 1.38 1.39 1.42 1.44 1.45 1.47 1.42 1.26 1.27 1.34 1.35 1.32 1.44 1.60 1.63 1.65 1.64 1.64 1.60 1.56 1.56 1.55 1.53 1.56
1.60 1.56 1.48 1.43 1.41 1.33 1.24 1.21 1.23 1.31 1.41 1.43 1.45 1.46 1.51 1.50 1.45 1.42 1.39 1.38 1.38 1.35 1.28 1.24 1.23 1.21 1.19 1.22 1.24 1.26 1.32 1.35 1.38 1.44 1.51 1.56 1.56 1.59 1.58 1.57 1.55 1.53 1.56 1.61 1.64 1.62 1.62 1.62 1.64 1.66 1.66 1.63 1.60 1.57 1.54 1.55 1.54 1.52 1.50 1.47 1.44 1.43 1.39 1.36 1.41 1.46 1.42 1.36 1.34 1.33 1.34 1.40 1.39 1.37 1.52 1.62 1.64 1.58 1.54 1.54 1.50 1.49 1.52 1.53 1.57
Wind_Speed
11 10 11 11 11 11 10 10 9 9 8 8 8 9 9 9 9 9 9 9 9 9 10 10 9 9 9 9 9 9 9 9 9 9 9 9 10 10 10 10 10 11 11 11 11 11 10 10 10 10 11 11 11 11 11 11 11 11 11 11 11 10 10 9 9 9 8 8 8 7 7 6 6 6 5 5 5 4 3 3 2 2 2 3 3
11 11 11 11 11 11 10 10 10 9 9 9 10 10 10 10 10 10 9 10 9 9 10 10 10 9 9 9 9 9 9 9 9 9 9 10 10 10 10 10 11 11 11 11 11 10 10 10 10 10 11 11 11 11 11 11 11 11 11 11 11 10 10 10 9 9 9 9 8 8 7 6 6 6 5 5 5 5 4 3 2 2 2 2 3
11 11 11 11 11 11 10 10 11 11 10 11 11 11 11 10 10 10 10 10 9 9 9 10 10 9 9 10 9 9 9 9 9 10 10 10 10 10 10 11 11 11 11 11 10 10 10 10 10 10 10 10 11 11 11 11 11 11 11 11 11 10 10 10 10 10 9 9 9 8 8 7 7 6 6 5 5 5 5 4 3 2 2 2 2
11 11 11 11 11 11 12 11 12 12 11 11 11 11 11 10 10 10 10 9 9 9 9 9 9 9 9 9 9 9 9 9 9 10 10 10 10 10 11 11 11 11 11 10 10 10 10 10 10 10 10 10 10 10 10 10 10 10 10 10 10 10 10 10 10 10 9 9 9 8 8 7 7 6 6 5 5 5 5 4 3 3 2 2 2
12 11 11 12 12 12 12 12 12 12 12 12 12 11 10 10 10 10 9 9 9 9 9 9 9 9 9 9 9 9 9 9 9 10 10 10 10 11 11 11 11 10 10 10 10 10 10 10 10 10 10 10 10 10 10 10 10 10 10 10 10 10 10 10 9 9 9 9 9 8 8 7 7 6 6 5 5 5 4 4 3 3 2 2 2
12 12 12 12 12 12 12 12 12 12 12 12 11 11 10 10 10 9 9 9 9 9 9 9 9 9 9 9 9 9 9 10 10 10 10 10 11 11 10 10 10 10 10 10 10 10 10 10 9 9 9 9 9 9 9 9 9 9 9 9 10 10 10 10 10 10 10 9 9 9 8 8 7 7 6 5 5 5 5 4 3 3 2 2 2
13 13 12 12 12 12 12 12 12 12 11 11 11 10 10 10 10 9 9 9 9 9 9 9 9 9 9 9 9 9 9 10 10 10 10 10 10 10 10 10 9 9 9 9 10 10 10 9 9 9 9 9 9 9 9 9 9 9 9 9 10 10 10 10 10 10 10 10 9 9 8 8 7 7 7 6 6 5 5 5 4 3 2 2 1
13 13 12 12 12 12 12 12 11 11 11 10 10 10 10 10 10 9 9 9 9 9 9 9 9 9 9 9 9 9 9 10 10 9 10 10 10 10 9 9 9 9 9 10 10 10 9 9 9 9 9 9 9 9 9 9 9 9 9 9 10 10 10 10 10 10 10 10 10 10 9 9 8 7 7 7 6 5 5 5 4 4 3 2 1
12 12 12 12 12 12 12 12 11 11 11 10 10 10 10 9 9 9 9 9 9 9 9 9 9 9 9 9 9 9 10 9 9 9 10 10 10 9 9 9 9 9 9 10 10 10 10 9 9 9 9 9 9 9 9 9 9 9 9 9 10 10 10 10 10 10 10 10 10 10 10 9 8 8 7 7 6 5 5 4 4 4 3 3 2
12 12 12 12 12 12 11 11 11 11 10 10 10 10 9 9 9 9 9 9 9 9 9 9 9 9 9 9 9 9 9 9 9 9 10 10 9 8 8 8 8 8 9 10 10 10 10 10 10 9 9 9 10 10 9 9 9 9 9 9 9 9 9 10 10 11 10 10 10 10 10 9 9 8 8 7 7 6 5 4 3 3 3 3 2
11 12 12 11 12 11 11 11 11 11 10 10 10 10 9 9 9 9 9 9 9 9 9 9 9 9 9 9 9 9 9 9 9 9 9 9 9 8 8 8 8 8 9 9 9 9 9 9 9 9 9 10 10 10 9 9 9 9 9 9 9 9 9 9 10 10 10 10 10 10 10 9 9 9 8 7 7 7 6 5 4 3 3 3 3
11 11 11 11 11 11 11 11 11 10 10 10 10 9 9 9 9 9 9 9 9 9 9 9 9 9 9 9 9 9 9 9 9 9 9 9 8 8 8 7 7 8 8 9 9 9 9 9 9 9 10 10 10 10 9 9 9 9 9 9 9 9 9 9 9 9 10 10 11 11 10 9 9 8 8 8 7 7 6 6 5 4 3 3 3
11 11 11 11 11 11 11 10 10 10 10 10 10 9 9 9 9 9 9 9 9 9 9 9 9 9 9 9 9 9 9 9 9 9 9 8 8 7 7 7 7 8 8 8 8 9 8 8 8 9 9 10 10 9 9 9 8 9 9 9 9 9 9 9 9 9 10 10 11 11 10 9 8 8 8 8 8 7 7 6 6 5 4 3 2
10 10 10 10 10 11 11 11 10 10 10 10 10 9 9 9 9 9 9 9 9 9 9 9 9 9 9 9 9 9 9 9 9 9 8 8 7 7 7 7 7 8 8 8 8 8 8 8 8 8 9 9 9 9 9 8 8 8 8 9 9 9 9 9 8 9 10 11 11 11 10 9 9 8 8 8 8 8 7 7 7 6 4 3 3
10 10 10 10 10 10 11 11 10 10 10 10 10 10 9 9 9 9 9 9 9 9 9 9 9 9 10 10 9 9 9 9 8 8 8 7 7 7 7 7 7 7 8 8 8 8 8 8 8 8 8 8 9 8 8 8 8 7 8 8 9 9 9 9 9 9 10 11 11 11 10 10 9 8 8 8 8 8 8 8 8 7 5 4 4
10 10 10 10 10 10 10 10 10 10 10 10 10 10 10 9 9 9 9 9 9 9 9 9 9 10 10 10 10 9 9 9 8 8 8 7 7 7 7 7 7 7 7 7 7 8 8 8 8 8 8 8 8 8 8 7 7 7 7 8 8 8 9 9 9 9 10 10 10 11 10 10 9 8 8 8 8 8 8 8 9 8 7 6 6
9 10 10 10 10 10 10 10 10 10 10 10 10 10 10 10 9 9 9 9 9 9 9 10 10 10 10 10 10 9 9 9 8 8 8 7 7 7 7 7 7 7 7 7 8 8 8 8 8 8 8 7 7 7 7 7 6 6 6 7 8 8 8 9 9 10 10 10 10 11 10 10 9 8 8 8 8 8 9 9 9 9 8 7 7
9 9 10 10 10 10 9 9 10 9 10 10 10 10 10 10 9 10 10 9 9 9 10 10 10 10 10 10 10 9 9 9 8 8 8 7 7 7 7 6 6 7 7 8 8 8 8 8 7 7 7 7 7 6 6 6 5 5 6 7 8 8 8 9 10 10 10 10 10 10 10 10 9 9 8 8 8 9 9 9 9 9 9 9 8
8 9 9 9 9 9 10 10 9 9 10 10 10 10 11 10 10 10 10 10 10 10 10 10 10 10 10 10 10 9 9 9 9 8 8 7 7 7 7 6 6 7 7 8 8 8 7 7 7 7 6 6 6 6 5 5 5 5 6 7 7 8 8 9 9 10 10 10 10 10 10 10 9 9 8 8 9 9 9 10 10 10 10 9 9
8 8 8 9 9 9 10 9 10 10 10 10 10 10 11 11 11 11 11 10 10 10 10 10 10 10 10 10 9 9 9 9 9 8 8 7 7 7 7 7 6 7 8 8 8 7 7 6 6 6 6 6 5 5 4 4 4 5 6 7 7 8 8 9 9 10 10 10 10 10 10 10 9 9 8 8 9 9 10 10 10 11 11 10 10
8 8 8 8 9 9 10 9 10 10 10 10 10 10 11 11 11 11 11 11 11 10 10 10 11 10 10 10 10 9 9 9 9 9 8 7 8 8 7 7 6 7 8 8 7 7 6 5 5 5 5 5 5 4 4 4 5 5 6 6 7 8 8 9 10 10 10 10 10 10 10 10 9 9 8 9 9 10 10 10 11 11 11 11 11
7 7 7 8 8 9 9 9 10 10 10 10 11 11 11 11 12 11 11 11 11 11 11 11 11 11 11 10 10 9 9 9 9 9 8 8 8 8 8 7 7 7 7 7 6 6 5 5 4 4 4 5 4 4 4 5 6 6 6 7 7 8 8 9 10 10 10 10 10 10 10 10 9 9 8 9 9 10 10 11 11 12 12 12 12
7 7 7 8 8 8 9 9 10 10 10 10 11 11 11 12 12 12 12 12 11 11 11 11 11 11 11 10 10 10 10 9 9 9 8 8 8 8 8 7 7 7 7 6 6 5 5 4 4 4 4 4 4 4 5 5 6 6 6 7 7 8 8 9 9 10 10 10 10 10 10 10 9 9 8 9 9 10 10 11 11 12 13 13 13
7 7 7 7 8 8 8 9 10 10 10 10 11 11 12 12 12 13 12 12 12 12 12 12 11 11 11 11 10 10 10 10 9 9 9 9 9 8 8 7 7 7 7 6 5 5 4 4 4 4 4 4 4 4 5 5 6 6 6 6 7 7 8 8 9 9 10 10 10 10 10 10 9 8 8 9 10 10 10 11 11 12 13 13 13
6 6 6 7 8 8 8 9 9 10 10 10 10 11 11 12 12 13 13 13 12 12 12 12 12 12 12 11 11 10 10 10 9 9 9 9 9 8 8 7 7 7 6 6 5 5 5 5 5 4 4 4 4 4 5 4 5 5 6 6 6 7 7 8 8 9 9 9 10 10 10 10 9 8 8 9 9 10 10 11 11 12 13 14 14
5 5 6 6 7 7 7 8 9 9 10 10 10 11 12 12 12 13 13 13 13 13 13 13 13 13 12 12 11 11 10 10 9 9 9 9 9 9 8 7 7 6 6 6 5 5 5 5 4 4 4 4 4 4 4 4 4 4 5 5 6 7 7 7 8 8 9 9 9 10 10 9 8 8 8 9 9 10 11 11 12 12 13 14 14
5 5 5 6 6 7 7 8 8 9 9 10 10 11 12 12 12 13 13 13 13 13 14 13 13 13 13 12 12 11 10 10 10 9 9 9 9 9 8 8 7 6 6 6 5 5 5 4 4 4 4 4 3 3 3 3 3 4 4 4 5 6 7 7 8 8 8 9 9 9 9 9 8 8 8 8 9 9 11 11 12 13 13 14 14
5 5 5 5 6 7 7 7 8 8 9 10 10 11 11 12 13 13 13 14 14 14 14 14 14 14 13 12 12 11 10 10 10 10 9 10 10 9 8 8 7 6 6 6 6 5 4 4 4 4 4 4 3 3 3 3 3 3 4 4 5 6 7 7 7 8 8 9 9 9 9 8 8 8 8 8 9 9 10 11 12 13 14 14 14
4 4 4 5 6 6 7 7 8 8 8 9 10 10 11 12 13 13 13 14 14 14 14 14 14 14 14 13 12 11 10 10 11 10 10 10 9 8 8 8 7 6 6 6 6 5 4 4 4 4 4 3 3 3 2 2 2 2 3 4 5 5 6 7 7 8 8 9 9 9 8 8 8 8 8 8 9 9 10 11 12 13 14 14 14
4 4 4 5 5 6 6 7 7 7 8 9 9 10 11 11 12 13 13 14 14 14 15 15 14 14 14 13 12 11 11 11 11 11 10 10 9 9 9 8 7 6 6 6 5 5 4 4 4 4 3 2 2 2 1 1 1 2 2 3 4 5 6 6 7 7 8 9 9 8 8 8 8 8 8 8 9 9 10 10 12 13 13 14 14
4 4 4 4 5 6 6 6 7 7 8 9 9 10 10 11 12 13 13 13 14 15 15 15 15 14 14 13 13 12 12 12 11 11 10 10 10 10 8 7 7 6 5 5 5 5 4 4 4 3 3 2 1 1 0 0 1 2 2 3 4 5 5 6 7 7 8 9 9 8 8 8 8 7 8 8 9 9 10 10 11 12 13 13 14
4 4 4 4 4 5 6 6 6 7 8 8 9 10 10 11 12 13 13 13 14 15 15 15 15 14 14 14 13 13 13 12 11 11 10 10 10 10 8 7 7 6 5 5 5 4 4 4 3 3 3 2 1 1 1 1 1 2 2 3 4 4 5 6 7 7 8 8 8 8 8 8 8 7 7 8 8 9 10 10 11 11 12 13 13
4 3 3 3 4 5 5 5 5 6 7 8 9 9 10 11 12 13 13 13 14 14 15 15 15 15 14 14 14 14 13 12 12 11 11 11 10 9 8 7 6 5 5 4 4 4 4 4 3 3 3 2 1 1 1 2 2 2 3 3 4 4 5 6 7 7 7 8 8 8 8 8 8 7 7 7 8 9 9 10 10 11 12 13 13
4 3 3 3 3 4 4 5 5 6 7 8 8 9 10 11 12 13 13 14 14 14 15 15 15 15 15 14 14 14 13 13 12 12 11 11 10 9 8 7 6 5 5 4 4 4 4 4 3 3 2 2 1 2 2 2 2 2 3 3 4 5 5 6 7 7 7 7 7 8 8 8 8 7 7 7 7 8 9 9 10 10 11 12 13
4 4 3 3 3 4 4 4 5 6 7 8 8 9 10 11 12 13 13 14 14 14 15 15 15 15 15 15 14 14 13 13 12 12 12 11 10 9 8 7 6 5 5 4 4 4 4 4 3 3 2 2 2 2 2 2 2 3 3 4 4 4 5 6 7 7 7 7 7 8 8 8 7 7 7 7 7 8 9 9 10 10 11 11 12
5 4 4 3 3 3 4 4 5 6 7 7 8 9 10 11 12 13 14 14 14 15 15 15 15 15 15 15 15 14 13 13 12 12 12 11 9 8 7 7 6 5 5 4 4 4 4 4 3 3 2 2 2 2 2 2 3 3 3 3 4 4 5 6 6 6 7 7 7 7 8 7 7 7 7 6 6 7 8 9 9 10 10 11 12
5 4 4 3 3 3 3 4 5 6 7 8 8 9 10 11 12 13 14 14 15 15 15 15 15 15 15 15 15 14 13 13 12 12 11 10 9 8 7 6 6 6 5 5 4 4 4 3 3 3 2 2 2 1 2 2 2 3 3 4 4 5 5 6 6 6 7 7 7 7 7 7 7 7 6 6 6 7 7 8 9 9 10 11 11
5 4 4 3 3 3 3 4 5 6 7 8 9 9 10 11 12 13 14 15 15 15 15 16 16 16 15 15 14 14 13 13 12 12 11 10 8 7 7 6 6 6 6 5 4 4 3 3 3 2 2 2 1 1 2 2 2 3 3 4 5 5 5 6 6 6 7 7 7 7 7 7 7 7 6 5 6 7 7 7 9 9 9 10 11
5 5 4 3 3 3 3 4 5 6 7 8 9 10 11 11 12 13 14 15 15 15 16 16 16 16 15 15 14 14 13 13 12 11 11 9 8 7 6 6 7 7 6 5 4 4 3 3 2 2 2 1 1 1 2 2 2 3 3 4 5 6 6 6 6 6 7 7 7 7 7 7 7 6 6 5 6 7 7 7 8 9 9 9 10
6 5 4 3 3 3 3 4 5 6 8 8 9 11 12 12 13 13 14 15 15 15 16 16 16 16 15 15 14 14 13 12 12 11 10 9 8 7 6 6 6 7 6 5 5 4 4 3 2 2 2 1 1 2 2 2 3 3 4 4 5 6 6 6 6 6 7 7 7 7 7 8 7 7 6 5 6 7 7 7 8 8 8 8 9
6 5 4 4 3 3 4 5 6 7 8 9 10 12 12 13 13 14 14 15 15 15 16 15 15 15 15 15 14 14 13 12 11 10 10 9 8 7 7 7 6 7 6 6 6 5 4 3 3 2 2 1 2 2 2 2 3 3 4 5 5 5 6 6 6 7 7 7 8 7 7 7 7 6 6 5 6 7 7 7 7 8 8 8 8
6 6 5 4 4 4 4 6 7 8 9 10 11 12 13 13 14 14 14 15 15 15 16 16 15 16 16 15 14 13 12 11 10 10 9 9 8 8 7 7 6 7 7 6 6 5 4 4 3 3 2 2 2 2 2 2 3 3 4 5 5 6 6 6 6 6 7 7 7 8 7 7 7 6 6 6 7 7 6 6 7 7 8 8 8
7 7 6 5 5 5 5 6 7 8 9 10 12 13 13 14 14 14 15 15 15 15 16 16 16 16 15 15 14 13 12 11 10 9 9 9 8 7 7 7 6 6 6 6 6 5 5 4 3 3 3 2 2 2 2 2 2 3 3 4 5 6 6 6 6 6 6 6 7 8 7 6 6 6 6 6 7 7 6 6 6 6 7 7 8
8 7 6 6 5 6 6 7 8 9 10 11 12 13 13 14 14 14 14 14 15 15 16 16 16 15 15 14 13 12 12 11 10 9 9 8 8 7 6 6 6 6 6 6 6 6 5 4 4 3 3 3 3 2 2 1 2 2 3 4 5 5 5 6 6 6 6 6 7 8 7 6 6 7 7 6 6 6 6 6 5 6 6 7 7
8 8 7 7 6 7 7 8 9 9 10 12 13 13 14 14 14 14 14 14 14 15 15 15 15 15 14 13 13 12 12 11 10 9 9 8 7 7 6 6 6 6 6 6 6 5 5 5 4 4 3 3 3 2 2 2 2 3 3 3 4 5 5 6 6 6 6 7 7 7 7 6 6 6 7 7 6 6 6 6 5 5 6 6 7
9 9 8 7 7 7 8 8 9 9 10 12 13 14 14 14 14 14 15 15 15 15 15 15 15 14 13 13 12 12 12 11 10 9 8 8 7 7 6 6 6 6 5 5 5 5 5 5 4 4 4 4 3 3 3 3 3 3 3 3 4 4 5 5 6 6 7 7 7 7 7 7 6 6 7 7 6 6 5 5 5 5 5 6 6
10 10 9 8 8 8 9 9 10 10 11 12 13 14 14 15 15 15 15 15 15 14 14 14 14 13 13 12 12 12 12 11 10 9 9 8 7 7 6 6 6 5 5 5 5 5 5 4 4 4 4 4 4 3 4 3 3 3 3 3 4 4 4 5 5 6 7 7 7 7 7 7 7 6 7 7 6 6 5 5 4 5 5 5 6
11 10 10 9 9 9 9 10 10 11 12 13 13 14 14 14 14 14 14 14 14 14 14 13 13 12 12 11 11 11 11 11 10 9 9 8 7 6 6 6 5 5 5 5 5 5 4 4 4 4 4 4 4 4 4 3 3 3 3 3 4 4 4 5 5 5 6 6 7 7 7 7 7 7 7 7 6 6 5 4 4 4 4 4 5
12 11 11 10 10 10 10 11 11 12 13 13 14 14 14 14 14 14 14 14 14 13 13 13 12 12 11 11 11 11 11 10 10 9 9 8 7 7 6 6 5 5 5 5 5 5 4 4 4 4 4 4 4 4 4 4 3 3 3 3 3 3 4 4 5 5 5 5 6 7 7 8 8 7 7 7 7 7 5 5 4 3 4 4 5
12 12 12 11 11 11 11 12 13 13 13 14 14 14 14 14 14 14 14 13 13 13 13 12 12 11 11 11 11 11 11 10 10 9 9 8 8 7 6 6 6 6 5 5 5 5 4 4 4 4 4 4 4 4 4 4 4 3 3 3 3 3 3 4 5 5 5 5 6 6 7 7 7 7 7 7 8 7 6 5 4 4 3 3 4
13 13 13 13 12 12 12 13 14 14 14 15 15 15 15 14 14 14 14 13 13 13 12 12 12 11 11 11 11 11 11 10 10 9 9 8 8 7 7 7 6 6 6 5 5 5 5 5 4 4 4 4 4 4 4 4 3 3 3 3 3 3 3 4 5 5 4 4 5 6 6 7 7 6 7 7 8 7 7 6 5 4 4 3 3
Wind_Direction
168 167 165 164 166 165 166 168 167 164 161 160 158 155 153 149 144 140 136 136 137 134 130 129 130 129 127 125 123 120 117 116 113 110 109 108 107 106 107 109 111 112 112 110 108 106 104 103 102 102 101 101 99 98 99 98 97 95 93 92 91 90 87 85 83 82 79 77 76 75 75 75 75 76 77 77 75 73 74 81 97 122 137 151 162
167 168 166 166 168 166 168 167 164 161 155 150 149 148 148 146 143 140 137 135 136 134 131 132 132 130 128 125 122 119 116 115 112 111 110 109 107 106 107 109 112 113 112 110 107 105 104 104 103 103 102 101 100 99 99 97 96 93 91 89 87 86 84 81 79 77 76 75 73 72 71 71 71 71 72 73 73 71 70 73 81 105 135 149 158
162 166 166 165 167 166 166 162 158 156 149 144 143 144 144 144 142 140 138 135 137 136 133 133 133 132 130 127 124 120 116 113 112 113 112 110 108 107 108 110 111 111 111 109 108 107 106 106 105 105 103 101 101 101 100 98 96 93 90 86 83 82 80 78 76 74 73 71 70 68 67 67 67 66 66 67 69 69 67 69 74 87 118 144 157
156 159 162 162 162 160 158 156 153 150 146 144 143 143 144 145 143 141 139 137 138 137 136 134 133 132 130 127 124 120 116 113 113 114 114 112 110 109 110 110 110 109 109 109 108 109 108 108 106 104 103 102 103 103 101 98 95 93 90 86 82 79 77 75 74 72 70 68 66 64 62 62 62 61 60 61 62 64 62 60 66 80 100 126 147
151 151 154 155 155 153 153 152 149 146 145 144 143 144 145 145 144 142 140 140 140 139 139 136 134 132 130 127 124 121 117 115 115 115 115 114 113 112 111 111 110 109 108 108 108 109 108 107 106 105 104 104 104 103 101 98 96 94 90 86 82 79 76 73 72 71 68 65 62 60 57 55 55 55 55 54 55 56 53 51 58 76 93 111 131
147 147 149 150 151 151 151 149 147 146 144 143 144 145 146 146 144 143 144 144 144 141 140 138 136 134 132 129 125 122 119 118 117 117 117 116 115 114 113 112 111 109 108 107 108 109 108 107 107 107 107 107 105 103 101 99 97 93 88 85 82 78 75 72 71 70 67 63 59 56 53 50 48 48 48 48 49 49 49 51 55 66 84 99 121
146 147 148 149 149 150 150 149 149 148 146 146 147 147 147 147 146 147 148 148 147 144 142 140 138 137 135 131 127 124 121 120 120 119 119 118 116 115 115 114 111 108 106 108 110 110 109 109 109 109 109 108 107 105 102 99 96 93 88 85 81 77 73 70 69 68 65 61 56 52 50 48 46 44 43 43 45 47 49 55 57 60 70 82 104
147 148 148 148 149 150 151 150 150 149 149 150 149 149 149 149 149 151 151 150 150 148 145 143 141 140 138 134 130 127 125 123 123 123 122 121 118 117 116 114 110 107 108 111 111 110 110 110 110 109 109 108 107 105 103 99 96 91 87 84 80 74 70 68 67 65 63 58 52 48 47 47 45 42 42 41 40 42 48 55 57 56 58 60 66
149 149 149 149 150 152 152 152 151 151 151 152 151 151 151 151 152 154 154 152 152 151 148 146 144 143 141 137 133 130 129 127 127 127 126 124 122 120 118 114 111 110 113 114 112 110 109 109 109 109 108 107 106 105 103 100 96 90 86 83 78 72 68 66 64 61 59 55 51 46 44 45 43 41 42 41 39 39 44 49 51 50 52 50 47
151 151 152 153 153 154 154 154 153 154 153 153 152 152 153 152 153 154 155 155 155 153 151 149 147 146 144 140 136 133 132 131 131 131 129 127 125 124 122 118 115 114 115 116 113 111 109 108 107 107 107 106 106 106 103 100 95 90 85 80 75 70 67 65 62 59 56 52 49 44 40 41 41 39 40 41 39 39 39 40 40 40 43 42 37
153 154 156 157 157 157 157 156 156 156 156 155 154 154 153 152 152 154 155 157 157 155 153 152 149 148 146 143 140 137 135 135 134 134 133 131 130 129 126 122 118 118 118 118 115 113 111 108 107 107 107 107 107 106 102 97 92 88 82 77 72 67 65 63 60 57 53 49 46 41 38 38 39 37 38 41 38 36 36 34 30 27 29 30 25
155 157 159 161 161 160 160 160 158 158 158 158 157 156 155 153 152 154 156 158 158 157 155 154 153 150 149 146 143 141 139 138 137 137 136 135 134 132 129 126 122 122 122 120 117 115 113 110 109 108 108 108 107 105 100 95 88 84 80 75 69 63 61 62 59 53 47 44 41 37 37 38 38 37 37 39 36 35 34 30 24 19 18 16 13
157 160 163 166 166 165 165 165 163 163 162 161 160 159 157 156 155 156 158 159 159 158 157 157 155 153 152 150 148 145 144 144 142 141 139 138 137 135 131 128 125 125 125 123 120 117 115 113 111 110 109 109 107 104 100 93 86 82 78 73 66 60 61 63 57 49 43 38 36 35 36 36 36 36 36 36 34 34 31 25 20 15 10 4 359
160 164 166 169 170 171 172 171 170 169 168 167 165 164 162 161 159 159 160 161 160 160 160 159 159 157 156 155 153 150 149 149 147 146 143 142 139 136 133 129 127 127 127 126 123 121 118 115 113 114 112 110 106 103 100 93 85 79 75 71 65 60 62 61 54 46 40 35 33 34 35 35 36 37 36 35 35 35 31 25 22 18 11 3 355
163 167 169 170 171 173 175 176 176 175 175 173 171 170 168 167 165 163 163 164 163 163 162 162 162 161 160 159 158 155 153 153 152 151 148 146 143 139 135 131 129 129 129 128 126 124 120 117 115 116 115 112 107 103 98 92 87 81 74 68 63 61 60 56 50 42 37 34 33 33 33 34 38 38 37 36 36 35 31 26 24 21 14 5 2
165 168 170 171 172 173 175 177 178 178 179 178 178 176 173 173 172 170 168 167 167 167 166 166 165 163 164 164 163 160 157 158 158 156 153 151 146 141 138 133 132 131 131 130 129 127 123 120 117 117 116 113 108 102 96 90 87 83 74 65 60 59 57 53 46 39 36 35 33 33 33 34 36 37 36 34 34 31 27 23 21 17 9 2 2
167 168 171 172 174 174 176 178 179 180 180 182 183 182 180 179 178 177 174 173 172 171 170 169 168 166 167 167 166 165 162 162 162 161 158 155 149 145 142 136 134 134 134 133 132 130 125 122 119 117 115 112 106 100 94 89 85 80 72 63 59 58 55 50 43 37 37 35 34 34 33 33 34 34 33 32 31 28 23 19 16 11 5 357 357
169 172 174 176 177 177 179 180 182 182 182 185 186 187 186 185 185 184 181 180 178 177 175 173 172 171 171 171 170 168 167 166 165 165 162 159 153 148 145 140 137 137 137 136 134 131 127 124 121 118 115 111 105 100 93 88 81 73 69 61 57 57 54 48 41 38 38 35 34 34 33 32 32 31 31 31 29 25 20 16 12 8 3 357 354
170 175 178 181 182 182 184 185 187 186 186 188 190 191 191 190 191 189 187 186 184 182 180 179 178 176 177 176 174 172 170 169 169 170 167 163 157 150 147 144 141 141 140 138 136 133 129 126 123 119 115 110 105 100 95 89 79 70 67 59 57 58 54 48 42 40 38 35 33 33 33 32 30 29 29 30 27 22 18 15 12 9 6 2 358
174 178 182 187 188 189 190 192 192 191 192 194 195 194 194 195 195 194 192 190 189 187 185 184 183 181 180 180 179 177 174 174 174 174 171 167 160 153 151 149 146 144 142 140 137 135 131 128 124 119 114 110 106 104 97 86 74 69 68 61 60 60 54 48 43 41 38 34 31 30 31 31 30 28 29 29 25 22 21 19 17 13 10 7 4
177 181 184 188 192 195 198 200 200 198 199 200 201 199 198 199 199 198 196 195 193 192 190 188 187 186 184 183 183 181 179 178 178 177 175 171 164 159 156 153 149 146 144 141 139 137 135 132 126 120 114 110 107 103 92 80 76 76 72 64 62 59 53 48 44 41 37 32 29 28 29 30 29 28 31 30 26 26 25 22 19 16 13 10 8
178 183 186 190 195 198 201 204 204 203 203 205 205 203 202 202 202 201 199 199 196 195 194 191 190 189 187 187 185 185 183 182 179 178 178 174 169 164 161 158 153 149 146 143 140 140 139 137 133 130 124 119 114 103 93 86 85 84 76 67 62 57 52 47 43 39 35 31 28 27 28 29 28 29 32 30 28 28 27 24 21 18 15 13 12
179 183 188 192 197 199 202 204 204 203 204 206 206 206 205 204 203 202 201 201 199 198 197 194 192 190 190 189 188 187 185 184 181 180 181 179 173 168 165 161 155 150 148 144 142 143 143 143 142 140 137 130 119 106 99 93 88 83 75 68 63 57 51 46 41 38 35 31 29 27 28 29 29 32 34 31 29 28 27 25 22 20 17 15 14
181 184 187 191 196 199 202 203 202 202 204 206 207 208 207 206 205 203 204 202 200 199 198 196 194 192 192 190 190 189 187 186 184 184 183 181 176 170 167 161 155 152 148 145 144 146 147 147 147 145 139 128 114 103 99 93 85 78 72 67 62 56 50 44 39 37 35 32 29 27 26 27 29 34 35 31 30 28 26 23 21 19 17 17 16
180 184 188 193 197 199 202 202 202 203 205 208 208 209 208 208 207 206 206 204 202 201 199 198 195 194 192 191 191 190 190 189 187 186 182 180 176 169 167 164 157 154 150 147 147 150 152 152 151 148 138 126 115 106 99 93 85 77 68 62 57 52 45 39 34 32 31 30 29 25 24 26 28 32 32 29 28 27 25 22 20 18 17 17 17
179 185 191 199 201 201 203 203 204 205 207 209 208 209 208 208 208 207 207 205 204 202 200 198 196 194 193 191 191 191 191 189 188 185 181 181 176 168 169 168 161 156 153 149 151 155 156 155 153 152 146 135 125 113 106 100 88 75 64 55 51 45 39 34 28 25 25 26 24 21 22 25 28 29 27 25 24 24 24 22 20 18 17 18 18
180 188 194 203 206 205 206 206 209 209 210 210 208 209 209 210 209 207 207 205 204 203 201 198 196 195 193 192 191 191 190 188 186 182 181 181 174 171 173 170 163 160 157 153 155 159 159 155 154 155 148 137 131 119 110 102 85 70 59 50 44 37 33 29 24 21 22 22 20 20 21 24 26 25 22 22 21 21 21 20 19 19 18 19 19
180 189 196 203 208 209 208 209 211 212 212 211 210 211 211 210 210 208 207 205 203 202 200 197 196 195 193 192 191 189 188 186 184 181 182 179 174 174 174 169 165 162 159 157 157 159 159 154 155 156 145 136 133 124 113 99 75 57 50 44 35 29 28 25 22 19 19 20 18 19 21 22 23 21 17 18 17 17 19 18 18 19 19 20 20
188 192 199 204 208 210 211 214 214 214 213 212 212 212 211 210 209 208 206 204 203 200 198 196 195 194 192 192 190 186 185 184 182 180 180 179 177 176 172 169 167 164 160 159 157 157 158 154 157 157 149 142 135 130 118 94 59 38 35 33 27 22 20 18 18 17 17 16 16 19 20 20 21 18 15 15 14 13 15 17 17 19 18 19 20
197 199 206 206 208 212 214 216 215 215 214 214 214 212 211 209 207 206 204 203 201 198 196 195 194 192 192 191 189 186 183 181 179 178 178 177 176 172 170 171 170 167 163 161 160 157 160 160 164 165 161 153 142 142 122 80 44 27 21 19 17 15 12 11 13 13 13 12 13 17 18 18 17 15 15 14 13 12 11 14 17 19 17 17 19
203 206 211 209 209 213 216 217 216 217 216 217 215 212 210 208 205 203 202 200 197 194 193 192 191 190 190 190 188 186 181 178 176 176 176 174 171 169 172 174 172 171 167 165 165 165 169 171 175 178 178 177 171 172 175 341 1 6 357 0 5 5 4 6 8 8 10 10 10 14 15 16 14 12 15 14 13 12 9 11 16 18 17 16 17
204 208 209 208 208 212 215 217 219 218 217 216 213 209 207 204 203 200 198 196 192 191 190 189 188 187 187 187 186 184 180 177 176 175 174 171 170 171 175 175 174 175 172 171 174 179 181 179 184 192 197 202 212 245 254 282 330 337 331 342 353 357 357 359 3 2 5 7 8 12 13 13 11 9 13 12 11 11 10 11 14 16 16 15 16
204 207 207 206 209 213 214 218 221 220 217 214 210 206 203 200 198 196 194 192 189 188 186 185 185 184 185 185 183 182 180 178 176 175 174 172 173 176 178 178 179 181 178 178 183 189 190 187 192 204 210 217 261 289 279 291 316 317 314 328 341 349 351 353 357 358 1 4 5 9 10 8 6 6 9 10 8 9 10 10 12 14 15 16 15
199 199 201 205 209 213 216 222 223 219 214 210 207 202 198 195 194 192 190 188 187 185 183 182 182 183 184 183 181 180 179 177 176 175 174 175 177 179 180 181 184 186 187 189 191 193 196 199 201 211 218 226 273 295 296 293 300 307 311 322 333 341 345 349 353 355 357 359 359 3 5 3 2 2 4 7 6 6 8 8 10 12 14 15 15
195 196 194 200 204 210 219 224 220 214 208 204 201 197 192 190 188 187 187 186 185 184 182 181 181 182 181 180 179 178 177 176 176 175 175 178 180 182 184 187 187 189 193 195 196 197 200 207 208 213 221 239 278 300 309 310 310 310 316 325 333 340 342 346 350 353 355 356 355 357 1 0 0 360 359 4 5 4 7 7 8 11 12 14 14
195 194 189 193 196 204 215 216 212 204 200 196 192 190 187 185 184 184 184 183 182 181 180 180 181 180 179 178 178 177 176 176 177 176 178 180 182 185 190 192 191 192 197 198 198 200 203 210 213 211 215 240 278 298 312 328 326 316 324 335 343 349 348 348 348 348 350 353 352 353 357 358 357 357 355 359 2 2 5 7 8 10 10 11 13
192 192 188 195 192 195 205 205 202 197 191 187 184 183 182 181 181 181 181 180 179 180 179 179 179 177 176 176 175 175 176 177 178 179 180 182 183 188 192 194 193 194 198 199 198 202 206 214 220 214 212 238 275 305 317 328 324 318 331 341 349 353 352 351 348 344 345 348 348 349 354 357 356 355 354 356 360 0 2 5 8 9 9 10 12
188 188 187 194 189 188 198 196 193 189 183 181 179 178 177 176 176 176 177 176 177 178 177 177 176 175 175 175 175 176 176 177 179 181 181 182 185 190 193 194 196 197 199 200 201 205 209 213 224 225 224 250 282 312 319 324 323 323 333 341 344 345 347 350 350 347 345 345 345 347 353 356 357 356 357 359 360 0 0 2 5 7 8 9 10
185 184 180 179 178 179 185 184 182 179 176 176 174 173 172 172 171 171 172 173 174 175 174 174 173 173 174 175 176 176 175 177 180 182 182 184 188 193 192 193 197 199 200 200 200 209 214 213 224 237 252 273 284 300 311 329 339 338 339 339 337 337 338 343 351 351 346 346 347 349 353 355 354 355 358 359 358 359 0 359 1 5 7 8 9
183 179 173 167 167 171 172 172 171 171 170 169 168 168 167 168 168 168 169 170 170 170 171 172 172 173 174 175 175 175 175 178 181 183 184 186 191 192 191 194 197 198 200 202 203 210 216 216 223 240 268 289 288 300 313 332 345 342 338 337 334 334 335 338 346 349 346 348 348 347 351 353 354 354 355 357 356 356 358 357 358 3 5 7 8
180 177 172 165 164 165 166 165 164 165 165 163 162 163 163 164 165 165 166 167 168 169 170 170 172 173 174 174 174 175 176 179 182 183 186 189 191 191 193 196 196 196 200 204 207 209 215 220 227 240 263 281 282 297 317 330 339 340 337 336 337 336 337 338 341 344 347 349 348 347 349 350 351 352 353 356 356 354 356 356 357 1 3 5 7
179 182 176 166 162 161 162 162 160 161 161 160 159 160 161 161 161 163 164 166 167 169 170 170 172 173 173 173 175 176 178 180 182 184 188 190 190 191 194 197 197 199 203 206 209 211 217 225 230 242 257 260 264 277 305 325 335 341 339 340 344 343 341 342 341 343 347 349 350 351 351 350 349 352 355 356 354 354 356 357 358 1 4 6 8
180 183 178 167 162 159 162 162 158 160 160 159 159 159 159 159 159 161 162 164 166 168 169 170 171 171 173 175 177 178 179 181 182 184 186 188 189 190 194 197 198 201 206 209 213 216 223 232 233 239 249 256 261 267 283 308 328 339 344 346 351 351 350 353 351 348 351 352 355 357 355 355 356 357 358 355 352 354 357 358 358 360 3 8 11
181 184 179 171 168 163 163 163 159 160 160 159 159 159 158 158 158 160 161 162 164 166 168 170 171 172 175 176 178 179 181 183 183 183 184 185 187 190 193 197 199 202 205 211 218 222 228 236 236 235 239 253 261 262 268 286 315 329 344 350 354 357 357 358 357 354 358 359 360 0 357 354 358 1 358 353 349 350 355 358 357 358 4 11 15
185 187 185 178 174 170 166 165 162 161 161 159 159 159 158 158 158 158 160 161 162 164 167 170 172 174 176 176 178 180 182 184 184 184 185 186 188 192 196 199 202 205 207 212 219 223 228 231 232 232 234 244 253 259 269 281 301 313 332 343 350 356 354 354 356 357 0 0 360 1 360 359 359 359 356 352 349 348 352 358 359 0 5 13 18
190 190 190 185 179 174 169 167 166 162 162 161 159 159 159 159 159 159 160 161 161 164 167 170 172 175 176 177 180 183 184 185 187 189 189 190 191 194 199 202 204 207 210 214 217 222 227 227 228 230 231 237 245 254 267 279 295 306 319 330 339 347 349 354 359 356 355 358 2 3 4 7 3 357 355 354 354 353 352 355 359 0 4 11 18
195 193 193 190 184 179 173 170 169 166 164 162 161 161 160 160 161 161 162 163 164 166 169 171 173 176 178 180 182 185 186 187 190 193 194 195 197 198 200 202 204 208 211 212 216 222 226 228 229 231 231 235 241 251 265 277 293 305 314 324 333 341 348 358 1 357 355 356 1 3 5 7 4 1 1 0 360 360 356 354 356 359 2 8 16
198 195 195 195 190 184 180 175 173 171 168 166 165 164 163 164 164 164 165 166 168 170 171 173 175 177 180 182 184 186 188 190 193 197 198 199 201 202 203 203 204 207 210 210 215 221 224 228 230 231 234 238 241 250 264 274 285 297 307 320 329 333 343 358 2 1 0 356 356 3 6 4 5 7 9 8 6 4 0 356 353 355 360 5 12
201 200 198 198 194 189 185 180 178 176 174 172 171 170 169 169 168 168 169 170 173 174 175 177 178 180 184 185 187 188 190 193 196 199 200 202 203 205 206 207 208 208 210 211 213 217 221 224 227 230 234 241 246 252 262 270 278 286 294 309 320 327 336 349 354 356 2 0 357 4 7 5 6 9 13 15 12 9 8 8 3 357 358 5 14
204 203 201 200 197 192 189 186 184 181 179 178 177 176 175 175 174 173 174 175 177 178 180 182 183 185 188 190 190 190 192 195 198 200 202 204 206 207 209 211 211 211 211 212 214 217 218 221 229 233 235 242 249 254 260 265 273 277 281 295 309 318 330 340 345 347 353 360 358 1 5 5 4 5 11 14 14 15 18 18 15 10 6 8 17
207 205 203 201 200 195 192 191 190 186 185 184 183 182 180 180 180 179 180 181 181 182 183 186 188 189 191 193 193 193 196 199 202 203 204 205 207 209 211 213 213 214 214 214 216 218 218 223 232 237 236 241 249 254 258 259 263 270 276 287 294 301 312 323 333 337 340 350 353 353 357 0 359 360 5 8 13 18 21 24 27 28 27 20 23